Location: Fleurie
(46.1921°N, 4.6973°E)
Time: 07:08:24
(UTC+00:00)

Daily predictions for brighter satellites

Satellite Brightness Start Highest point End
(mag) Time Altitude Azimuth Time Altitude Azimuth Time Altitude Azimuth
CSL-04 Debris 4.4 18:02:43 10° SE 18:07:56 53° ENE 18:13:10 10° N
Cosmos 1939 Rocket 3.5 18:06:12 10° S 18:10:17 64° W 18:14:25 10° NNW
CZ-2D R/B 3.4 18:06:27 10° S 18:10:20 82° WSW 18:14:15 10° NNW
Sich 1 Rocket 4.4 18:07:02 10° SSE 18:10:55 30° E 18:14:51 10° NNE
Meteor 1-21 4.3 18:08:18 10° N 18:13:51 59° ENE 18:19:22 10° SSE
Cosmos 1689 Rocket 4.2 18:11:08 10° N 18:13:52 33° WNW 18:16:36 10° SW
MOS 1 Rocket 3.9 18:10:58 10° NNE 18:14:53 29° E 18:18:38 10° SSE
Helios 1A Rocket 3.9 18:11:01 10° S 18:15:02 54° W 18:19:06 10° NNW
Cosmos 1603 3.7 18:09:50 10° NNW 18:15:34 87° ENE 18:21:12 10° SSE
CSL-04 Rocket 3.8 18:11:03 10° SSE 18:16:21 59° ENE 18:21:47 10° N
SJ 16-02 2.3 18:14:16 10° SW 18:18:33 52° WNW 18:22:51 10° NNE
Cosmos 2112 Rocket 4.3 18:15:37 10° NNW 18:20:49 73° WSW 18:26:01 10° SSE
Cosmos 1937 Rocket 3.5 18:17:05 10° S 18:22:17 64° ESE 18:27:27 10° NNE
NOSS 8 (H) 4.0 18:19:41 10° SW 18:22:55 78° SE 18:25:55 10° NE
Cosmos 1680 Rocket 4.2 18:19:10 10° NNW 18:24:19 58° WSW 18:29:26 10° S
Abrixas rocket 2.1 18:26:11 10° W 18:29:00 62° NNW 18:31:43 11° ENE
Okean 2 Rocket 3.9 18:25:34 10° SSE 18:29:28 30° E 18:33:21 10° NNE
Cosmos 1464 Rocket 4.4 18:25:25 10° SSE 18:31:04 40° E 18:36:45 10° NNE
NOSS 2-2 (E) 3.2 18:27:52 10° SSW 18:31:16 51° ESE 18:35:01 10° NE
SL-08 RB Rocket 4.4 18:28:06 10° SE 18:32:14 34° ENE 18:36:22 10° N
Cosmos 1544 4.4 18:31:12 10° SSW 18:34:43 45° WNW 18:38:15 10° N
USA 116 3.4 18:32:00 10° NNE 18:35:27 83° ESE 18:39:17 10° SSW
Okean-O 3.8 18:31:29 10° S 18:35:44 47° W 18:40:03 10° NNW
Okean 2 3.9 18:32:01 10° NNW 18:36:09 66° W 18:40:16 10° S
ATLAS 2AS CENTAUR R/B 4.4 18:33:48 10° SE 18:37:15 13° ESE 18:40:42 10° ENE
Cosmos 1300 Rocket 4.2 18:34:03 10° SSE 18:38:01 34° E 18:42:03 10° NNE
CZ-2C R/B 3.2 18:36:19 10° SSW 18:38:02 13° S 18:39:42 10° SSE
NOSS 2-2 (D) 3.2 18:36:34 10° SSW 18:39:57 49° ESE 18:43:38 10° NE
Iridium 4 Rocket 4.0 18:39:15 10° SSW 18:44:07 64° W 18:49:32 10° N
USA 102 3.8 18:39:03 10° SE 18:44:24 27° E 18:45:14 24° ENE
YAOGAN 1 3.5 18:40:53 10° S 18:45:05 51° W 18:49:20 10° NNW
CENTAUR R/B 3.7 18:37:54 10° NNW 18:45:17 42° NE 18:51:58 15° E
Cosmos 1975 3.7 18:41:46 10° SSW 18:45:46 56° W 18:49:48 10° N
H-2A R/B 2.0 18:44:14 10° SSE 18:49:11 90° W 18:54:18 10° NNW
SJ-11-01 4.4 18:45:05 10° S 18:49:48 81° WSW 18:54:32 10° NNW
CZ-4 R/B 3.2 18:46:37 10° SSW 18:50:31 36° W 18:54:26 10° NNW
Cosmos 1437 3.9 18:47:53 10° NNW 18:50:45 42° W 18:53:36 10° S
Cosmos 1674 4.0 18:48:12 10° NNE 18:51:12 21° ENE 18:52:09 19° E
ATLAS 3B R/B 4.2 18:46:32 10° NNW 18:51:43 22° NNE 18:56:56 10° ENE
ISS -3.6 18:50:53 10° SW 18:54:10 52° SE 18:56:09 21° ENE
Cosmos 1536 Rocket 4.1 18:51:38 10° N 18:55:50 39° ENE 18:58:59 16° SE
USA 238 DEB 4.1 18:49:56 10° NW 18:56:59 56° NE 19:02:30 18° ESE
USA 238 4.1 18:50:02 10° NW 18:57:05 55° NE 19:02:35 18° ESE
In-Cosmos 22 4.1 18:53:11 10° N 18:58:26 60° ENE 19:03:43 10° SSE
Cosmos 1891 Rocket 4.4 18:52:21 10° S 18:58:27 69° E 19:04:29 10° NNE
ARGOS 3.1 18:57:21 10° SSE 19:02:43 90° W 19:08:07 10° NNW
Cosmos 1025 Rocket 3.0 19:01:31 10° N 19:05:53 66° E 19:10:01 11° SSE
CZ-2C R/B 2.9 19:00:52 10° NNE 19:06:14 48° E 19:11:38 10° S
Cosmos 1707 2.8 19:05:17 10° NNW 19:09:08 78° W 19:12:57 10° S
Cosmos 2151 Rocket 3.6 19:06:26 10° S 19:10:47 56° E 19:15:12 10° NNE
USA 186 1.6 19:13:02 24° SSE 19:14:47 86° E 19:18:02 10° N
CREW DRAGON DEMO-1 DEB 4.2 19:14:25 10° NW 19:17:09 29° N 19:18:00 25° NE
Ariane Rocket 2.9 19:12:56 12° SSE 19:17:40 78° ENE 19:22:45 10° NNW
SJ-6B 2.6 19:16:15 28° SSE 19:18:03 65° ENE 19:21:47 10° N
CZ-2C R/B 4.5 19:14:00 10° SSW 19:18:53 40° W 19:24:05 10° NNW
Cosmos 1844 4.0 19:14:38 10° S 19:19:56 41° ESE 19:25:12 10° NE
FREGAT/IRIS 2.4 19:20:39 56° NNE 19:20:39 56° NNE 19:22:55 10° N
Cosmos 2263 Rocket 3.6 19:16:51 10° WSW 19:22:03 39° NW 19:27:18 10° NNE
Nadezhda 4 Rocket 3.9 19:17:19 10° N 19:23:28 75° E 19:29:17 11° SSE
Cosmos 494 Rocket 4.3 19:19:05 10° NNW 19:24:11 47° ENE 19:26:06 33° ESE
NOSS 2-2 (C) 3.7 19:21:04 10° SW 19:24:32 58° NW 19:28:26 10° NNE
NOSS 3-2 (A) 4.0 19:17:16 10° NW 19:24:47 80° NE 19:30:19 24° SE
MOS 1 4.2 19:21:25 14° SSE 19:26:21 80° ENE 19:32:05 10° NNW
Cosmos 2034 Rocket 3.9 19:22:12 10° S 19:28:34 79° E 19:34:56 10° N
Cosmos 1844 Rocket 2.6 19:23:08 10° S 19:28:35 59° ESE 19:34:05 10° NNE
USA 102 4.2 19:24:06 17° SSE 19:28:52 48° SW 19:29:58 32° WNW
Cosmos 2298 Rocket 3.9 19:25:41 10° SSW 19:31:00 83° ESE 19:36:23 10° NNE
SPOT 3 Rocket 3.7 19:32:57 36° ESE 19:34:39 52° ENE 19:39:39 10° N
Resurs 01 Rocket 2.0 19:42:54 43° ENE 19:42:56 43° ENE 19:47:10 10° N
USA 234 3.3 19:37:19 10° ENE 19:43:43 54° SE 19:50:05 10° SSW
SWAS 4.4 19:41:13 10° NNW 19:45:31 66° ENE 19:45:52 62° E
MetOp-A 4.2 19:42:59 21° S 19:46:40 78° WSW 19:52:04 10° NNW
Lacrosse 5 rocket 3.7 19:43:24 10° NW 19:46:43 20° N 19:49:28 13° NE
Cosmos 1833 Rocket 3.9 19:46:06 10° N 19:50:50 26° NE 19:51:25 26° ENE
OBJECT-B 1.4 19:52:33 53° NNW 19:52:33 53° NNW 19:55:07 10° NNW
Meteor 1-15 Rocket 4.1 19:47:25 10° S 19:53:02 90° SSE 19:58:48 10° N
Cosmos 1626 3.5 19:53:59 10° N 19:56:03 29° NNE 19:56:03 29° NNE
NOSS 3-2 (C) 4.0 19:52:05 10° NW 19:59:37 83° NE 20:03:03 40° SE
DMSP B5D2-2 4.3 19:54:37 10° N 19:59:54 71° WNW 20:05:09 10° SSW
ARIANE 5 R/B 3.7 20:01:02 32° NE 20:01:02 32° NE 20:03:58 10° N
Cosmos 2150 Rocket 4.5 19:55:27 10° SSW 20:00:46 63° WNW 20:06:12 10° NNE
Cosmos 1634 Rocket 3.9 19:59:03 40° SSE 20:01:10 64° E 20:07:18 10° NNE
Abrixas rocket 4.3 20:01:40 10° WNW 20:03:00 24° WNW 20:03:00 24° WNW
BREEZE-M TANK 2.7 19:57:02 10° WSW 20:04:32 72° S 20:04:38 72° SSE
Cosmos 2285 Rocket 3.9 20:02:12 10° SSW 20:08:29 86° ESE 20:14:53 10° NNE
Cosmos 1125 Rocket 3.6 20:03:15 10° SSW 20:08:34 78° WNW 20:13:55 10° NNE
Okean 1 Rocket 3.1 20:08:19 64° SW 20:08:56 78° W 20:13:27 10° N
ERS-1 Rocket 4.5 20:17:27 24° NE 20:17:27 24° NE 20:20:17 10° N
Cosmos 1627 Rocket 4.5 20:11:14 10° N 20:17:39 87° W 20:19:38 48° S
Resurs 1-3 4.1 20:18:55 51° WSW 20:19:20 53° W 20:23:39 10° NNW
Cosmos 1092 Rocket 4.2 20:16:51 10° NNW 20:22:56 65° W 20:25:37 34° SSW
Cosmos 1805 4.4 20:24:13 43° NW 20:24:13 43° NW 20:27:28 10° N
Meteor 2-5 Rocket 3.9 20:18:33 10° NNW 20:24:10 70° W 20:25:27 52° SSW
Cosmos 1674 4.4 20:23:22 10° NNW 20:26:45 30° W 20:27:00 29° W
ATLAS 2AS CENTAUR R/B 2.9 20:19:01 10° SSW 20:26:48 62° ESE 20:34:34 10° NE
Cosmos 2026 Rocket 4.1 20:22:50 10° NNW 20:29:12 76° W 20:30:53 51° SSW
Cosmos 2098 Rocket 4.4 20:23:35 10° N 20:30:00 48° ENE 20:30:00 48° ENE
ISS -1.1 20:27:50 10° W 20:29:08 20° WNW 20:29:08 20° WNW
Cosmos 2082 Rocket 3.4 20:28:02 10° N 20:32:16 30° NE 20:32:16 30° NE
Meteor 1-22 Rocket 4.3 20:34:25 67° SSW 20:35:15 82° W 20:41:20 10° N
CENTAUR R/B 3.3 20:28:33 10° NW 20:36:40 72° WSW 20:39:10 50° S
CZ-2C R/B 4.5 20:35:07 10° N 20:38:59 50° NW 20:38:59 50° NW
SPOT 1/Viking Rocket 4.2 20:43:21 48° N 20:43:21 48° N 20:47:10 10° N
ATLAS 3B R/B 2.9 20:37:06 10° NW 20:43:52 58° NE 20:44:10 58° ENE
COSMOS 2406 3.4 20:38:13 10° NNW 20:43:10 66° N 20:43:10 66° N
Cosmos 2279 Rocket 3.9 20:44:34 78° NE 20:44:34 78° NE 20:50:27 10° N
Meteor 1-24 Rocket 4.0 20:41:29 10° NNW 20:46:54 59° W 20:47:08 58° WSW
Cosmos 2142 Rocket 4.4 20:47:06 76° SW 20:47:30 81° W 20:53:47 10° N
Cosmos 1269 Rocket 4.5 20:43:18 10° NNW 20:48:00 58° WNW 20:48:00 58° WNW
Spot 2 Rocket 4.2 20:51:06 49° NNW 20:51:06 49° NNW 20:54:46 10° NNW
Terra 3.8 21:02:36 22° NNE 21:02:36 22° NNE 21:04:25 10° N
Cosmos 2278 Rocket 4.4 21:07:57 15° NNE 21:07:57 15° NNE 21:08:49 10° NNE
Lacrosse 4 Rocket 4.0 21:05:39 10° NNW 21:06:37 16° NNW 21:06:37 16° NNW
Resurs 01 Rocket 4.0 21:20:28 20° WNW 21:20:28 20° WNW 21:23:00 10° NW
USA 234 3.6 21:24:43 42° NNE 21:26:47 59° NNW 21:33:11 10° WSW
Lacrosse 5 rocket 4.0 21:23:19 10° NW 21:25:05 19° NNW 21:25:05 19° NNW
Cosmos 1833 Rocket 4.0 21:29:36 10° NNW 21:33:07 37° NW 21:33:07 37° NW
Cosmos 2082 Rocket 4.2 22:11:56 10° NW 22:14:06 23° NW 22:14:06 23° NW
ATLAS 2AS CENTAUR R/B 3.9 22:10:38 10° WSW 22:18:11 44° NW 22:25:38 10° NNE
ATLAS 3B R/B 4.3 22:28:08 10° NW 22:31:25 26° WNW 22:31:25 26° WNW
Cosmos 2278 Rocket 4.5 22:49:46 20° NNW 22:49:46 20° NNW 22:52:20 10° N
